Vorticity
12 5 5 2 -6 13 -13 -34 0 1 -5 10 44 -1 7 0 -3 9 24 16 10 14
11 11 27 6 9 8 3 8 5 10 23 1 11 9 21 25 18 23 12 17 9 -8
11 7 -1 3 18 1 6 4 17 11 15 23 2 7 -4 9 12 6 -3 -4 -8 8
10 6 12 8 12 10 10 8 8 13 7 -2 1 2 10 6 9 9 5 3 8 15
11 3 10 14 12 13 10 11 0 16 17 24 16 8 7 10 1 10 4 10 7 7
12 17 18 15 19 11 11 6 24 24 -9 0 5 10 7 4 9 8 13 9 7 5
10 12 6 7 11 12 6 8 -14 -24 -6 7 10 9 6 9 7 7 6 6 6 5
9 8 7 7 7 4 11 14 11 14 13 12 14 10 9 8 6 8 6 6 6 6
15 15 19 24 20 13 7 5 12 13 15 10 6 6 6 7 6 4 5 5 6 8
9 7 7 8 10 10 9 9 7 6 4 5 6 5 5 5 6 7 7 8 8 7
7 7 6 5 5 4 5 6 7 6 6 6 6 5 4 6 7 6 4 3 9 9
1 3 4 5 6 6 6 5 4 3 5 11 14 12 7 6 7 9 13 8 8 8
11 10 12 12 13 13 10 6 7 8 8 6 6 8 11 10 5 9 10 9 12 14
7 7 7 7 6 6 7 8 10 10 10 9 8 8 8 9 9 10 13 11 6 5
Height
5714 5717 5722 5728 5730 5731 5731 5733 5736 5738 5741 5741 5739 5741 5740 5741 5740 5738 5736 5733 5730 5729
5703 5709 5711 5715 5718 5721 5722 5724 5726 5727 5728 5729 5728 5727 5730 5729 5729 5729 5724 5722 5722 5721
5697 5701 5704 5707 5710 5711 5713 5714 5715 5716 5718 5718 5719 5719 5720 5719 5718 5716 5715 5714 5712 5708
5688 5693 5696 5699 5701 5702 5703 5704 5706 5707 5707 5709 5709 5708 5708 5707 5707 5705 5704 5701 5698 5695
5681 5683 5686 5688 5691 5693 5694 5695 5695 5695 5696 5696 5697 5697 5697 5697 5694 5691 5689 5687 5685 5683
5672 5675 5678 5680 5682 5683 5685 5686 5686 5684 5685 5686 5686 5685 5684 5683 5681 5678 5676 5674 5672 5670
5663 5665 5667 5669 5671 5672 5674 5675 5675 5674 5673 5674 5673 5672 5671 5669 5668 5666 5664 5661 5659 5656
5655 5656 5658 5659 5660 5661 5662 5664 5664 5664 5663 5663 5661 5660 5659 5658 5657 5654 5651 5647 5645 5642
5648 5649 5649 5649 5651 5651 5652 5652 5653 5652 5651 5650 5649 5648 5646 5644 5641 5639 5637 5633 5630 5626
5641 5641 5642 5642 5642 5642 5642 5642 5641 5640 5640 5638 5636 5635 5633 5631 5629 5625 5621 5618 5614 5610
5634 5634 5633 5633 5632 5632 5632 5632 5631 5629 5628 5626 5625 5622 5620 5617 5613 5609 5605 5602 5599 5594
5625 5624 5624 5623 5623 5622 5621 5620 5619 5617 5615 5612 5610 5607 5604 5601 5597 5593 5590 5587 5582 5578
5613 5613 5613 5612 5611 5610 5608 5607 5605 5602 5600 5597 5595 5592 5588 5585 5582 5578 5574 5570 5565 5560
5603 5602 5601 5600 5599 5597 5595 5593 5591 5588 5586 5583 5580 5576 5573 5570 5566 5562 5559 5553 5547 5542